Dewpoint
64 64 65 64 65 64 64 62 63 62 61 62 62 62 61 61 61 59 58 59 58 57 56 56 57 56 58 58 59 59 59 59 56 57 55 56 56 57 58 59 61 61 60
62 62 62 62 62 61 60 60 60 60 59 58 58 57 56 56 57 57 57 57 55 54 56 56 54 57 54 54 55 55 54 55 53 50 53 54 55 56 56 57 58 59 60
59 61 61 60 60 58 59 60 59 58 57 57 55 55 55 54 54 53 54 54 53 52 52 52 51 51 51 52 52 52 53 54 54 54 54 53 55 55 55 55 55 55 56
59 61 61 60 60 60 60 59 57 56 54 53 53 53 54 53 53 51 51 51 50 51 51 51 50 50 50 50 51 51 51 51 54 53 53 54 54 54 54 53 53 53 54
60 62 62 61 61 59 58 57 55 54 53 51 48 48 48 47 47 48 48 48 48 48 49 50 50 52 55 55 52 50 49 50 51 52 52 52 53 52 52 53 54 54 52
62 62 60 58 58 58 57 55 54 53 50 48 44 45 45 49 48 49 49 46 46 47 47 48 49 52 52 53 53 53 53 49 47 50 47 48 48 49 50 51 52 51 50
59 57 54 54 57 57 57 55 51 47 46 44 43 44 46 48 47 48 48 45 45 45 45 46 48 48 50 48 49 50 49 51 53 48 46 46 46 48 49 48 52 51 52
52 52 52 53 54 53 51 50 48 47 46 45 44 48 48 47 48 47 47 46 43 44 45 46 46 46 48 48 46 46 45 46 46 49 51 49 48 49 49 49 50 50 51
49 50 50 50 50 50 50 49 48 46 45 45 48 47 47 47 47 46 46 46 45 46 45 45 46 46 46 46 45 45 44 45 49 49 50 49 48 48 49 48 50 50 49
46 45 48 48 47 45 41 41 45 47 47 48 47 47 47 46 46 45 45 46 44 44 45 46 47 46 44 43 42 43 43 44 45 45 45 46 48 50 49 52 52 49 49
45 45 44 46 44 43 43 47 47 47 47 47 46 45 45 46 46 44 43 45 44 45 45 45 45 45 44 43 42 43 43 44 45 44 44 45 45 46 50 50 52 51 49
44 44 43 43 43 46 48 47 47 46 47 46 44 44 45 46 45 45 43 43 45 43 43 44 44 43 42 42 42 43 42 44 44 44 45 46 46 48 48 50 51 52 53
43 41 43 46 47 49 47 46 46 47 46 44 44 44 44 45 46 44 44 43 44 43 43 44 43 42 43 45 45 44 45 46 45 45 46 47 48 48 45 48 51 50 50
46 45 46 47 46 47 47 47 46 44 43 44 44 44 43 43 45 44 44 43 45 43 43 42 43 44 43 45 46 48 49 48 48 48 48 48 49 49 48 50 49 49 50
44 46 46 46 45 45 46 46 46 45 44 44 43 42 42 43 44 40 41 43 44 43 40 41 42 41 41 45 46 47 48 48 46 47 47 48 49 50 49 49 50 50 49
45 44 44 44 44 44 44 44 42 42 41 41 40 41 43 42 40 40 39 39 39 39 40 39 39 40 40 41 42 44 46 46 46 47 47 47 47 48 48 49 50 49 48
44 44 44 43 44 43 43 43 42 42 42 41 41 41 40 40 39 39 39 39 39 39 37 37 37 38 39 39 40 41 42 44 45 44 46 47 48 48 47 47 49 49 48
45 44 44 43 44 43 43 42 41 40 40 41 42 42 40 39 39 39 40 40 40 37 37 37 37 37 38 38 39 39 40 42 41 40 42 47 48 47 47 46 49 48 47
46 45 44 44 44 43 42 41 41 41 40 39 40 41 41 39 39 38 37 38 37 36 36 37 37 37 37 38 39 40 40 39 39 39 39 43 46 47 47 46 46 43 44
46 42 42 43 43 42 41 41 40 40 39 39 39 40 40 40 39 38 36 36 36 36 36 36 36 37 36 37 37 38 39 38 38 37 37 38 41 46 46 46 47 46 46
45 45 41 42 41 42 41 41 39 39 38 39 39 39 33 38 38 36 36 36 36 36 36 36 35 36 35 35 35 37 37 37 37 37 37 37 38 42 45 47 46 46 45
45 43 42 41 41 41 40 40 39 38 40 41 42 41 37 39 37 36 36 36 36 36 36 36 35 35 35 34 34 34 35 36 37 37 36 36 37 38 41 43 44 44 45
46 44 43 42 41 41 41 40 40 39 41 42 41 42 42 40 36 36 37 37 36 35 36 35 34 34 34 34 34 33 32 33 34 36 37 37 37 37 38 40 43 43 41
46 45 46 44 43 43 42 42 42 41 43 43 43 43 41 39 37 37 37 37 36 35 35 35 35 35 34 33 34 33 34 33 35 37 39 37 37 36 37 37 39 40 41
48 47 43 43 43 45 43 42 41 41 40 40 39 39 38 37 37 38 37 37 36 35 35 35 34 34 33 33 32 32 32 32 35 34 41 40 38 37 36 36 37 39 39
40 41 42 41 40 38 37 36 35 36 37 36 36 36 36 36 36 37 37 37 35 33 33 33 32 31 32 32 32 31 32 32 33 34 41 42 40 38 38 38 38 38 39
Lifted_Index
-4 -4 -3 -4 -4 -3 -2 -2 -2 -1 -1 -1 -1 -1 -1 -1 -1 -1 -0 0 1 2 2 2 2 2 2 2 1 1 1 1 1 1 2 2 2 2 2 2 2 1 1
-3 -3 -2 -2 -3 -3 -2 -2 -1 -1 -1 -0 0 0 0 0 1 1 1 1 2 2 3 3 3 3 3 2 2 2 2 1 2 2 2 2 2 2 2 2 2 2 2
-2 -2 -2 -1 -1 -2 -2 -2 -1 -1 -0 1 2 2 2 3 3 3 3 3 4 4 4 4 4 4 4 4 3 3 3 2 2 2 2 2 2 2 2 2 2 2 2
-2 -2 -2 -1 -1 -1 -2 -1 -1 -0 1 2 3 4 4 5 5 5 5 5 5 5 4 4 4 5 4 4 4 4 3 3 3 3 3 3 3 2 2 2 2 2 3
-2 -2 -2 -2 -1 -1 -1 -0 1 2 3 4 5 6 6 6 6 5 5 5 5 4 4 4 4 4 3 3 3 4 4 3 3 3 3 3 3 2 2 2 2 2 2
-2 -2 -1 -1 -0 0 1 2 3 4 5 6 7 7 7 6 6 5 5 5 4 4 3 3 3 3 2 2 3 3 3 3 3 3 3 3 3 2 2 1 2 2 2
-1 -0 1 1 2 2 3 4 5 5 6 7 7 7 6 6 5 5 4 4 3 3 2 2 2 2 2 2 2 2 2 2 2 2 2 2 2 2 1 1 2 2 2
1 1 2 3 3 3 4 5 6 6 6 6 6 6 5 5 5 4 4 3 2 2 1 1 1 1 1 2 2 2 1 1 1 2 1 1 1 1 1 1 2 2 2
3 3 3 3 4 5 6 6 6 6 6 5 5 5 5 4 4 4 3 3 2 1 1 1 1 2 2 2 2 2 2 1 1 1 1 1 1 1 1 1 1 1 2
3 4 4 4 5 6 6 6 6 6 5 5 4 4 5 5 5 4 3 3 2 2 2 2 2 3 3 3 3 3 2 2 1 1 1 1 1 1 1 1 1 1 1
4 5 5 6 6 6 6 6 5 5 5 4 4 5 5 5 5 4 3 3 3 3 3 4 4 4 4 4 4 4 3 3 2 2 1 1 1 1 1 0 -0 0 0
5 6 6 6 6 6 5 5 5 5 5 5 5 5 5 5 5 4 4 4 4 4 5 5 5 5 5 5 4 4 3 3 2 2 2 1 1 1 1 0 -0 -0 -0
6 6 6 5 5 5 5 5 5 5 5 5 5 5 5 5 4 4 4 5 5 5 5 5 5 5 5 5 5 4 3 3 2 2 2 1 1 1 1 0 -0 -0 -0
5 5 5 5 5 5 5 5 5 5 5 5 5 5 5 5 5 5 5 5 5 5 6 6 6 5 5 5 5 4 4 3 3 3 2 2 1 1 1 0 -0 -0 -0
5 5 5 5 5 5 5 5 5 5 5 6 6 6 5 5 5 5 5 5 6 6 6 6 6 6 6 5 5 4 4 4 4 3 3 2 1 1 1 0 0 -0 0
4 4 5 5 5 5 5 5 5 5 6 6 6 6 6 6 6 6 6 6 7 7 7 7 7 7 7 6 5 5 4 4 4 4 3 3 2 1 1 1 0 0 0
4 4 4 5 5 6 6 5 5 6 6 6 6 6 6 6 6 7 7 7 8 8 8 8 8 8 7 7 6 5 5 4 4 4 4 3 3 2 2 1 1 1 1
3 3 4 5 6 6 6 6 6 5 5 5 5 6 6 7 7 7 7 8 8 9 9 9 8 8 8 7 7 6 6 5 5 5 4 3 3 3 3 2 2 2 2
3 3 4 5 6 6 6 5 5 5 4 5 5 5 6 7 7 7 8 8 8 9 9 9 9 8 8 8 7 7 7 6 6 5 4 4 3 4 4 3 3 3 3
2 3 4 5 6 6 6 5 4 4 4 5 5 5 5 6 7 7 7 8 8 9 9 10 10 9 8 8 8 8 7 7 7 6 5 4 3 4 4 4 4 3 3
2 3 4 5 5 5 5 5 4 4 5 5 5 5 5 5 6 7 7 8 8 9 9 10 10 9 9 8 8 8 8 8 8 7 7 5 4 3 4 4 4 4 3
2 2 3 4 4 4 4 4 4 4 4 4 4 4 4 5 6 6 7 7 8 9 9 10 10 9 9 8 8 8 8 8 8 8 7 6 5 4 4 4 3 3 4
2 2 3 3 3 3 3 4 4 4 4 4 4 4 4 5 6 6 7 8 8 9 10 10 10 9 9 8 8 8 8 8 7 7 7 7 7 6 5 4 4 4 4
2 2 2 3 3 3 3 4 4 4 4 4 5 5 5 5 6 6 7 8 8 9 10 10 10 10 9 9 8 8 8 7 7 7 7 7 7 7 6 5 5 5 5
3 2 3 3 4 4 4 5 5 5 5 5 5 5 6 6 6 7 8 8 9 9 10 10 10 10 10 9 9 8 8 7 7 7 7 7 7 7 7 6 6 6 6
3 3 3 4 4 4 5 5 5 5 5 5 6 6 6 6 7 7 8 9 9 10 10 10 10 11 10 10 9 9 8 8 7 7 6 6 7 7 7 7 7 7 7